Regional Weather Roundup
Issued by NWS

Home | Current Version | Previous Version | Graphics & Text | Print | Product List | Glossary On
Versions: 1 2 3 4 5 6 7 8 9 10 11 12 13 14 15 16 17 18 19 20 21 22 23 24 25 26 27 28 29 30 31 32 33 34 35 36 37 38 39 40 41 42 43 44 45 46 47 48 49 50
000
ASUS45 KBOU 271107
RWRCO

WEATHER ROUNDUP FOR COLORADO
NATIONAL WEATHER SERVICE DENVER/BOULDER CO
400 AM MST FRI FEB 27 2015

NOTE: "FAIR" INDICATES FEW OR NO CLOUDS BELOW 12000 FEET WITH NO
SIGNIFICANT WEATHER AND/OR OBSTRUCTIONS TO VISIBILITY.

COZ001>005-013-030-031-271200-
...NORTHWEST COLORADO...

CITY           SKY/WX    TMP DP  RH WIND       PRES   REMARKS
CRAIG          CLOUDY    12   7  80 CALM      29.87S
HAYDEN         CLOUDY    14   9  79 W7        29.83S WCI   4
MEEKER         MOCLDY    15  11  83 CALM      29.82F
MOUNT WERNER   NOT AVBL
STEAMBOAT SPGS NOT AVBL
WALDEN         MOCLDY    -8 -13  77 SE7       29.79S WCI -22
$$

COZ006>008-011-271200-
...WEST CENTRAL VALLEYS...

CITY           SKY/WX    TMP DP  RH WIND       PRES   REMARKS
GRAND JUNCTION LGT SNOW  31  30  96 E3        29.81F FOG
MONTROSE       MOCLDY    25  20  81 S6        29.83F WCI  18
EAGLE          CLOUDY    25  23  93 W7        29.81R WCI  17
RIFLE          CLOUDY    27  19  72 NW6       29.81F WCI  20
DELTA          PTCLDY    32  28  86 CALM      29.82F
NUCLA          MOCLDY    28  25  86 E8        29.84F WCI  20
$$

COZ017>023-064>068-271200-
...SOUTHWEST COLORADO...

CITY           SKY/WX    TMP DP  RH WIND       PRES   REMARKS
DURANGO        MOCLDY    21  20  96 CALM      29.80S
CORTEZ         CLOUDY    28  26  92 NW3       29.85R
PAGOSA SPRINGS CLOUDY    26  26 100 SW6       29.79S WCI  20
TELLURIDE      CLOUDY    18  16  94 CALM      29.78F
WOLF CREEK PAS HVY SNOW  10   9  92 SW12G21   29.74S VSB 1/4 WCI  -4
$$

COZ009-010-012-014-032>034-037-058>063-271200-
...CENTRAL COLORADO...

CITY           SKY/WX    TMP DP  RH WIND       PRES   REMARKS
ASPEN          LGT SNOW  18  15  88 S5        29.73F FOG     WCI  11
BUENA VISTA    FLURRIES   1  -4  77 E5        29.87F WCI  -8
COPPER MTN     NOT AVBL
BERTHOUD PASS  HAZE       0  -8  71 NW21      29.61F VSB 1/4 WCI -23
COTTONWOOD PAS FLURRIES   1  -4  78 CALM      29.74F
GUNNISON       CLOUDY    16  10  79 CALM      29.80S
KREMMLING      CLOUDY    12   7  79 CALM      29.82R
LEADVILLE      LGT SNOW  -4  -8  83 CALM      29.72F FOG
MONARCH PASS   CLOUDY     9   3  78 MISG      29.76F
SALIDA         CLOUDY     6   1  82 SE8       29.98S WCI  -7
SUNLIGHT       LGT SNOW  16  12  86 CALM        N/A  VSB 1
WILKERSON PASS MOCLDY     3   0  85 SW9       29.69S WCI -11
$$

COZ069>075-271200-
...SAN LUIS VALLEY/SANGRE DE CRISTO MOUNTAINS...

CITY           SKY/WX    TMP DP  RH WIND       PRES   REMARKS
ALAMOSA        LGT SNOW  17  11  77 S13       29.79S WCI   4
LA VETA PASS   SNOW       1  -2  85 MISG      29.74S VSB 1/2
SAGUACHE       LGT SNOW  19  16  86 S3        29.81R
$$

COZ035-036-038>040-271200-
...NORTHERN COLORADO FRONT RANGE...

CITY           SKY/WX    TMP DP  RH WIND       PRES   REMARKS
DENVER INTL AP PTCLDY    -2  -7  79 SE12      30.02F WCI -20
DMNS CITY PARK   N/A      7   5  90 NW1       30.03S
AURORA         PTCLDY     4  -3  74 S8        30.01F WCI -10
FRONT RANGE AP NOT AVBL
ERIE MUNI ARPT NOT AVBL
BOULDER MUN AP NOT AVBL
CENTENNIAL     PTCLDY     3  -2  79 S6        29.99F WCI  -8
BROOMFIELD     LGT SNOW   7   3  85 CALM      30.00F
FORT COLLINS   PTCLDY     7   3  85 N6        30.04F WCI  -3
LONGMONT       NOT AVBL
$$

COZ041-046-047-076>085-087-088-271200-
...PIKES PEAK/PALMER DIVIDE AND SOUTHERN FOOTHILLS...

CITY           SKY/WX    TMP DP  RH WIND       PRES   REMARKS
COLO. SPRINGS  LGT SNOW   6   3  87 SE12      30.01F FOG     WCI  -9
A. F. ACADEMY  CLOUDY     5   0  81 S13       29.96F HAZE    WCI -12
ELLICOTT       NOT AVBL
FALCON         NOT AVBL
FORT CARSON    LGT SNOW   7   4  87 SE6       30.02F FOG     WCI  -3
LIMON          LGT SNOW   6   3  87 SE15      30.07F FOG     WCI -12
MONUMENT HILL  CLOUDY     3   0  85 S20       29.89F FOG     WCI -18
TRINIDAD       LGT SNOW   9   4  80 NW9       30.01F WCI  -4
$$

COZ042>045-048>051-090-091-271200-
...NORTHEAST COLORADO...

CITY           SKY/WX    TMP DP  RH WIND       PRES   REMARKS
GREELEY ARPT   PTCLDY    10   1  67 SE14      30.06F WCI  -5
AKRON          LGT SNOW   7   5  91 SE13      30.13S FOG     WCI  -9
BURLINGTON     LGT SNOW  11   6  81 SE15      30.20F WCI  -5
WRAY           CLOUDY    10   4  76 E10       30.26F WCI  -4
STERLING       NOT AVBL
HOLYOKE        NOT AVBL
FORT MORGAN    CLEAR      6   3  88 E9        30.14S WCI  -8
$$

COZ086-089-092>099-271200-
...SOUTHEAST COLORADO...

CITY           SKY/WX    TMP DP  RH WIND       PRES   REMARKS
PUEBLO         LGT SNOW  11   9  92 E6        30.11S VSB 1   WCI   1
LA JUNTA       LGT SNOW  14  10  84 SE20      30.16S FOG     WCI  -3
LAMAR          LGT SNOW  14  10  84 SE17      30.22S FOG     WCI  -3
SPRINGFIELD      N/A     10   7  87 SE18      30.18S WCI  -8
$$



USA.gov is the U.S. government's official web portal to all federal, state and local government web resources and services.